Showing default

QIANFAN-54, 62255

Orbit data source: Space-Track

QIANFAN-54, 62255 is a Chinese payload satellite in LEO that was launched on Thu, 05 Dec 2024 UTC via a CHANG ZHENG 6A launch vehicle from the Taiyaun Space Center, China (TSC). Payloads include a variety of satellites, spacecraft, and rockets equipped with specific instruments for various scientific and technological missions. These include communications satellites like Starlink; space stations such as the ISS; scientific satellites like the Hubble; Earth observation satellites from companies like Planet Labs, Umbra, and HawkEye 360; GPS; miniature CubeSats for education and research; and military/defense satellites.

Loading next visibility...
QIANFAN-54 details
Identifier
62255, 2024-232U
Orbit
LEO
Last TLE update15 hours ago
Origin
Flag of CNYUANX (CN / PRC)
ManufacturerSECM
MissionOperational Commercial Communications
Bus & MotorQIANFAN, Unknown motor
Mass300 kg wet, ~300 kg dry
Launch date (UTC)
2024-12-05 (2 months ago)
Launch vehicle
CHANG ZHENG 6A
Launch site
Taiyaun Space Center, China (TSC)
Object type
Payload
Rocket body
Debris
Shape & HBRBox + 1 Pan, 10 m
Radar Cross Section13.200 m², Large (>1 m²)

Expand to show TLE details & history

TLE from 15 hours ago
0 QIANFAN-54
1 62255U 24232U   25035.56061338  .00000381  00000-0  16462-3 0  9994
2 62255  88.9888  73.0772 0015047  29.7224 330.4819 14.22407580 57069
Epoch: 2025-02-04T13:27Z
Definitive object data (Epoch: 2025-02-04T13:27:16.996Z)
Latitude-0°
Longitude96.29224°
Altitude810.859 km
Speed7.453 km/s
True Right ascension04h 52m 18s
True Declination0° 00' 00"
Sunlit
Object was in daylight at TLE epoch
Visualization TLE readout
Latitude-47.8903°
Longitude-82.66465°
Altitude846.051 km
Speed7.423 km/s
Apparent Right ascension17h 30m 08s
Apparent Declination-44° 16' 47"
Sunlit
Object is in daylight
Visualization observer readout
Local Sidereal Time06:03:29
Azimuth127.948° SE
Elevation-82.437°
Doppler factor1
Orbital elements
Apogee altitude824.992 km
Perigee altitude803.348 km
Semi-major axis7,192.307 km
Eccentricity0.0015047
Inclination88.9888°
RAAN73.0772°
Arg. of periapsis29.7224°
True anomaly330.39681°
Mean anomaly330.4819°
Eccentric anomaly330.43937°
Mean motion3.55829 °/min
BSTAR0.00016462
Orbital period101.17 mins
Loading maneuver chart data...
Loading historical data...
Loading historical data...
Loading historical data...
Loading historical data...
Loading historical data...
Loading historical data...
Loading historical data...

QIANFAN-54 Visibility forecast

Observer location: undefined°, undefined

Span
Click to sort rows by Start time (UTC) header in descending order
Start Az.
Max El. time (UTC)
Max El. Az.
Max El.
End time (UTC)
End Az.
8 mins2025-02-05 13:40:42.608Z30.384° NE2025-02-05 13:44:42.608Z83.286° E23.058°2025-02-05 13:48:42.608Z134.571° SE
8 mins2025-02-05 15:22:42.608Z333.77° NNW2025-02-05 15:25:42.608Z283.802° WNW31.155°2025-02-05 15:30:42.608Z213.146° SW
8 mins2025-02-06 02:43:42.608Z175.212° S2025-02-06 02:46:42.608Z158.724° S44.34°2025-02-06 02:51:42.608Z0.213° NNE
|